EW5238 Weather Reports


time (UTC)temp
C
wind
direction
speed
KPH
gust
KPH
rain 1hr
cm
rain 24hr
cm
rain mn
cm
humidity
%
barometer
mb
20260505181755 27 190 9.7 20.9 0.00 0.00 0.00 50 1006.4
20260505181301 27 190 9.7 20.9 0.00 0.00 0.00 50 1006.5
20260505180750 27 190 11.3 20.9 0.00 0.00 0.00 53 1006.5
20260505180250 27 190 9.7 17.7 0.00 0.00 0.00 53 1006.4
20260505175750 27 190 9.7 19.3 0.00 0.00 0.00 53 1006.4
20260505175249 27 190 11.3 19.3 0.00 0.00 0.00 50 1006.5
20260505174750 27 190 11.3 19.3 0.00 0.00 0.00 53 1006.5
20260505174251 27 190 12.9 25.7 0.00 0.00 0.00 51 1006.6
20260505173745 27 190 12.9 25.7 0.00 0.00 0.00 51 1006.6
20260505173248 27 190 11.3 19.3 0.00 0.00 0.00 50 1006.7
20260505172747 27 190 11.3 22.5 0.00 0.00 0.00 47 1006.7
20260505172245 27 190 11.3 22.5 0.00 0.00 0.00 50 1006.7
20260505171746 27 190 9.7 22.5 0.00 0.00 0.00 47 1006.7
20260505171246 26 190 9.7 17.7 0.00 0.00 0.00 44 1006.9
20260505170747 26 190 9.7 19.3 0.00 0.00 0.00 37 1007.0
20260505170247 26 190 9.7 19.3 0.00 0.00 0.00 37 1007.0
20260505165746 26 190 11.3 20.9 0.00 0.00 0.00 40 1007.0
20260505165518 26 190 11.3 20.9 0.00 0.00 0.00 42 1007.1
20260505164747 26 190 9.7 19.3 0.00 0.00 0.00 41 1007.0
20260505164241 26 190 11.3 22.5 0.00 0.00 0.00 36 1006.9
20260505164018 26 190 11.3 22.5 0.00 0.00 0.00 36 1006.9
20260505163240 26 190 9.7 20.9 0.00 0.00 0.00 28 1006.9
20260505162733 26 190 11.3 27.4 0.00 0.00 0.00 24 1006.9
20260505162231 26 190 12.9 27.4 0.00 0.00 0.00 27 1006.9
20260505161230 25 190 11.3 22.5 0.00 0.00 0.00 18 1007.0
20260505160729 25 190 9.7 22.5 0.00 0.00 0.00 4 1007.0
20260505160228 25 190 8.0 16.1 0.00 0.00 0.00 1 1007.0
20260505153217 24 190 9.7 19.3 0.00 0.00 0.00 1 1006.9
20260505152718 24 190 9.7 17.7 0.00 0.00 0.00 1 1006.9
20260505152217 24 190 11.3 19.3 0.00 0.00 0.00 1 1007.0
20260505151717 24 190 9.7 19.3 0.00 0.00 0.00 1 1006.9
20260505151216 24 190 8.0 16.1 0.00 0.00 0.00 1 1006.9
20260505150717 24 190 8.0 17.7 0.00 0.00 0.00 1 1006.8
20260505150216 23 190 6.4 17.7 0.00 0.00 0.00 1 1006.8
20260505140209 23 190 9.7 19.3 0.00 0.00 0.00 1 1006.7
20260505124624 -17 0.0 0.0 0.00 0.00 0.00 1006.4
20260505124031 -17 0.0 0.0 0.00 0.00 0.00 1006.2
20260505123302 -17 0.0 0.0 0.00 0.00 0.00 1006.2
20260505122754 -17 0.0 0.0 0.00 0.00 0.00 1006.2
20260505122253 -17 0.0 0.0 0.00 0.00 0.00 1006.2
20260505121701 -17 0.0 0.0 0.00 0.00 0.00 1006.0
20260505121058 -17 0.0 0.0 0.00 0.00 0.00 1006.1
20260505120550 -17 0.0 0.0 0.00 0.00 0.00 1005.9
20260505115957 -17 0.0 0.0 0.00 0.00 0.00 1006.0
20260505115719 -17 0.0 0.0 0.00 0.00 0.00 1006.1
20260505114859 -17 0.0 0.0 0.00 0.00 0.00 1006.1
20260505114359 -17 0.0 0.0 0.00 0.00 0.00 1006.1
20260505113850 -17 0.0 0.0 0.00 0.00 0.00 1006.2
20260505113522 -17 0.0 0.0 0.00 0.00 0.00 1006.1
20260505112058 21 190 6.4 12.9 0.00 0.00 0.00 1 1006.0
20260505111534 21 190 6.4 12.9 0.00 0.00 0.00 1 1006.0
20260505111032 21 190 6.4 12.9 0.00 0.00 0.00 1 1005.8
20260505110534 21 190 6.4 12.9 0.00 0.00 0.00 1 1005.5
20260505102018 21 190 6.4 11.3 0.00 0.00 0.00 1 1005.8
20260505101515 21 190 6.4 12.9 0.00 0.00 0.00 1 1005.8
20260505101015 21 190 6.4 12.9 0.00 0.00 0.00 1 1005.9
20260505100513 21 190 4.8 11.3 0.00 0.00 0.00 1 1005.9
20260505100012 21 190 4.8 12.9 0.00 0.00 0.00 1 1006.2
20260505095745 21 190 4.8 12.9 0.00 0.00 0.00 1 1006.2
20260505095012 21 190 6.4 14.5 0.00 0.00 0.00 1 1006.0
20260505094513 21 190 6.4 14.5 0.00 0.00 0.00 1 1006.0
20260505094010 21 190 4.8 14.5 0.00 0.00 0.00 1 1005.9
20260505093510 21 190 6.4 14.5 0.00 0.00 0.00 1 1005.9
20260505093007 21 190 6.4 12.9 0.00 0.00 0.00 1 1005.9
20260505092739 21 190 4.8 11.3 0.00 0.00 0.00 1 1006.0
20260505092004 21 190 4.8 11.3 0.00 0.00 0.00 1 1006.3
20260505090956 21 190 6.4 12.9 0.00 0.00 0.00 1 1006.2
20260505090452 21 190 6.4 11.3 0.00 0.00 0.00 1 1006.1
20260505085452 21 190 4.8 12.9 0.00 0.00 0.00 1 1006.1
20260505085002 21 190 6.4 12.9 0.00 0.00 0.00 1 1006.2
20260505084452 21 190 6.4 16.1 0.00 0.00 0.00 1 1006.3
20260505083955 21 190 8.0 16.1 0.00 0.00 0.00 1 1006.4
20260505083446 21 190 8.0 16.1 0.00 0.00 0.00 1 1006.4
20260505082947 21 190 6.4 16.1 0.00 0.00 0.00 1 1006.5
20260505082448 21 190 8.0 12.9 0.00 0.00 0.00 1 1006.6
20260505081947 21 190 6.4 12.9 0.00 0.00 0.00 1 1006.7
20260505080948 21 190 6.4 12.9 0.00 0.00 0.00 1 1006.7
20260505080716 21 190 6.4 12.9 0.00 0.00 0.00 1 1006.7
20260505075942 21 190 6.4 12.9 0.00 0.00 0.00 1 1006.9
20260505075444 21 190 6.4 12.9 0.00 0.00 0.00 1 1006.9
20260505074943 21 190 8.0 14.5 0.00 0.00 0.00 1 1006.9
20260505074718 21 190 8.0 14.5 0.00 0.00 0.00 1 1006.9
20260505074215 21 190 8.0 14.5 0.00 0.00 0.00 1 1006.9
20260505073439 21 190 8.0 14.5 0.00 0.00 0.00 1 1007.1
20260505072938 21 190 8.0 12.9 0.00 0.00 0.00 1 1007.1
20260505072437 21 190 8.0 12.9 0.00 0.00 0.00 1 1007.1
20260505071939 21 190 8.0 19.3 0.00 0.00 0.00 1 1007.2
20260505071438 21 190 6.4 19.3 0.00 0.00 0.00 1 1007.2
20260505070935 21 190 6.4 12.9 0.00 0.00 0.00 1 1007.2
20260505070436 21 190 8.0 14.5 0.00 0.00 0.00 1 1007.3
20260505065941 21 190 8.0 14.5 0.00 0.00 0.00 1 1007.3
20260505065433 21 190 8.0 16.1 0.00 0.00 0.00 1 1007.3
20260505064932 21 190 9.7 19.3 0.00 0.00 0.00 1 1007.3
20260505064426 21 190 9.7 19.3 0.00 0.00 0.00 1 1007.4
20260505064153 21 190 11.3 17.7 0.00 0.00 0.00 1 1007.4
20260505063424 21 190 11.3 19.3 0.00 0.00 0.00 1 1007.4
20260505062924 21 190 9.7 20.9 0.00 0.00 0.00 1 1007.3
20260505062424 21 190 9.7 20.9 0.00 0.00 0.00 1 1007.4
20260505061922 21 190 8.0 17.7 0.00 0.00 0.00 1 1007.4
20260505061421 21 190 9.7 20.9 0.00 0.00 0.00 1 1007.4
20260505060922 21 190 9.7 20.9 0.00 0.00 0.00 1 1007.4
20260505060422 21 190 8.0 17.7 0.00 0.00 0.00 1 1007.4
20260505055918 21 190 8.0 17.7 0.00 0.00 0.00 1 1007.4
20260505055416 21 190 8.0 17.7 0.00 0.00 0.00 1 1007.5
20260505054921 21 190 8.0 17.7 0.00 0.00 0.00 1 1007.5
20260505054418 21 190 9.7 17.7 0.00 0.00 0.00 1 1007.5
20260505053917 21 190 8.0 14.5 0.00 0.00 0.00 1 1007.7
20260505053418 21 190 6.4 16.1 0.00 0.00 0.00 1 1007.6
20260505052917 21 190 6.4 16.1 0.00 0.00 0.00 1 1007.7
20260505052418 21 190 6.4 16.1 0.00 0.00 0.00 1 1007.6
20260505052151 21 190 8.0 16.1 0.00 0.00 0.00 1 1007.6
20260505051914 21 190 8.0 16.1 0.00 0.00 0.00 1 1007.6
20260505051411 21 190 8.0 16.1 0.00 0.00 0.00 1 1007.6
20260505050908 21 190 8.0 16.1 0.00 0.00 0.00 1 1007.6
20260505050409 21 190 6.4 14.5 0.00 0.00 0.00 1 1007.7
20260505041623 21 190 9.7 19.3 0.00 0.00 0.00 21 1008.2
20260505040847 21 190 8.0 19.3 0.00 0.00 0.00 24 1008.2
20260505040348 21 190 8.0 22.5 0.00 0.00 0.00 26 1008.2
20260505040117 21 190 9.7 22.5 0.00 0.00 0.00 29 1008.2
20260505035354 21 190 9.7 19.3 0.00 0.00 0.00 31 1008.1
20260505034858 21 190 11.3 20.9 0.00 0.00 0.00 33 1008.0
20260505034353 21 190 9.7 20.9 0.00 0.00 0.00 36 1007.9
20260505033846 21 190 9.7 19.3 0.00 0.00 0.00 38 1008.0
20260505033343 22 190 11.3 25.7 0.00 0.00 0.00 41 1008.0
20260505032843 22 190 11.3 25.7 0.00 0.00 0.00 41 1008.1
20260505032350 22 190 9.7 17.7 0.00 0.00 0.00 42 1008.0
20260505031844 22 190 8.0 16.1 0.00 0.00 0.00 42 1008.1
20260505031347 22 190 8.0 20.9 0.00 0.00 0.00 43 1008.2
20260505030339 22 190 8.0 20.9 0.00 0.00 0.00 44 1008.2
20260505025839 22 190 9.7 19.3 0.00 0.00 0.00 46 1008.2
20260505025342 22 190 11.3 19.3 0.00 0.00 0.00 46 1008.1
20260505024845 22 190 9.7 19.3 0.00 0.00 0.00 46 1008.0
20260505024346 22 190 9.7 19.3 0.00 0.00 0.00 45 1008.0
20260505023845 22 190 8.0 16.1 0.00 0.00 0.00 44 1007.9
20260505023342 22 190 8.0 16.1 0.00 0.00 0.00 46 1008.0
20260505023112 22 190 9.7 17.7 0.00 0.00 0.00 48 1007.9
20260505022344 22 190 8.0 17.7 0.00 0.00 0.00 49 1007.8
20260505021852 22 190 8.0 17.7 0.00 0.00 0.00 51 1007.8
20260505021338 22 190 8.0 14.5 0.00 0.00 0.00 52 1007.9
20260505020841 22 190 8.0 14.5 0.00 0.00 0.00 53 1007.8
20260505020339 22 190 6.4 16.1 0.00 0.00 0.00 54 1007.8
20260505015836 23 190 8.0 16.1 0.00 0.00 0.00 55 1007.7
20260505015335 23 190 9.7 20.9 0.00 0.00 0.00 56 1007.7
20260505014843 23 190 8.0 20.9 0.00 0.00 0.00 56 1007.6
20260505013840 23 190 6.4 16.1 0.00 0.00 0.00 58 1007.5
20260505013613 23 190 6.4 16.1 0.00 0.00 0.00 59 1007.5
20260505012833 23 190 6.4 14.5 0.00 0.00 0.00 61 1007.4
20260505012328 23 190 6.4 14.5 0.00 0.00 0.00 61 1007.4
20260505011323 23 190 8.0 14.5 0.00 0.00 0.00 63 1007.3
20260505010610 23 190 8.0 14.5 0.00 0.00 0.00 64 1007.2
20260505005826 24 190 8.0 16.1 0.00 0.00 0.00 64 1007.3
20260505005322 24 190 8.0 20.9 0.00 0.00 0.00 65 1007.2
20260505003817 24 190 9.7 24.1 0.00 0.00 0.00 65 1007.4
20260505003323 24 190 11.3 24.1 0.00 0.00 0.00 65 1007.3
20260505002823 24 190 9.7 19.3 0.00 0.00 0.00 65 1007.3
20260505001823 25 190 11.3 22.5 0.00 0.00 0.00 65 1007.5
20260505001316 25 190 11.3 22.5 0.00 0.00 0.00 66 1007.5
20260505001050 25 190 11.3 17.7 0.00 0.00 0.00 66 1007.5
20260505000315 25 190 11.3 19.3 0.00 0.00 0.00 66 1007.5
20260504235820 25 190 12.9 25.7 0.00 0.00 0.00 66 1007.6
20260504235318 25 190 12.9 25.7 0.00 0.00 0.00 66 1007.5
20260504234812 25 190 11.3 20.9 0.00 0.00 0.00 66 1007.4
20260504234309 25 190 11.3 22.5 0.00 0.00 0.00 66 1007.5
20260504233809 25 190 11.3 22.5 0.00 0.00 0.00 66 1007.6
20260504233308 25 190 11.3 24.1 0.00 0.00 0.00 66 1007.7
20260504233041 25 190 11.3 24.1 0.00 0.00 0.00 66 1007.7
20260504232310 25 190 12.9 22.5 0.00 0.00 0.00 66 1007.7
20260504231809 25 190 11.3 24.1 0.00 0.00 0.00 65 1007.7
20260504231557 26 190 9.7 24.1 0.00 0.00 0.00 65 1007.8
20260504231033 25 190 9.7 19.3 0.00 0.00 0.00 66 1007.8
20260504230307 25 190 11.3 22.5 0.00 0.00 0.00 66 1007.7
20260504225803 25 190 12.9 22.5 0.00 0.00 0.00 66 1007.9
20260504225304 26 190 12.9 22.5 0.00 0.00 0.00 65 1007.9
20260504224255 26 190 12.9 25.7 0.00 0.00 0.00 65 1008.0
20260504223752 26 190 14.5 25.7 0.00 0.00 0.00 65 1008.0
20260504223258 26 190 14.5 24.1 0.00 0.00 0.00 65 1008.0
20260504222752 26 190 12.9 22.5 0.00 0.00 0.00 64 1008.0
20260504222254 26 190 12.9 24.1 0.00 0.00 0.00 64 1008.0
20260504221801 26 190 11.3 24.1 0.00 0.00 0.00 63 1008.1
20260504221246 27 190 11.3 22.5 0.00 0.00 0.00 63 1008.0
20260504220748 27 190 12.9 24.1 0.00 0.00 0.00 62 1008.0
20260504220248 27 190 14.5 24.1 0.00 0.00 0.00 62 1008.1
20260504215747 27 190 14.5 24.1 0.00 0.00 0.00 62 1008.0
20260504215255 27 190 12.9 25.7 0.00 0.00 0.00 61 1008.1
20260504214747 27 190 11.3 29.0 0.00 0.00 0.00 61 1008.3
20260504214242 27 190 9.7 20.9 0.00 0.00 0.00 61 1008.4
20260504213751 27 190 9.7 17.7 0.00 0.00 0.00 62 1008.6
20260504213242 26 190 8.0 17.7 0.00 0.00 0.00 62 1008.7
20260504212744 26 190 8.0 17.7 0.00 0.00 0.00 62 1008.8
20260504212248 26 190 9.7 17.7 0.00 0.00 0.00 62 1008.9
20260504211742 27 190 8.0 22.5 0.00 0.00 0.00 62 1008.9
20260504211237 27 190 8.0 22.5 0.00 0.00 0.00 61 1009.1
20260504210740 27 190 8.0 14.5 0.00 0.00 0.00 61 1009.2
20260504210512 27 190 6.4 12.9 0.00 0.00 0.00 61 1009.2
20260504210009 27 190 8.0 24.1 0.00 0.00 0.00 60 1009.2
20260504205233 27 190 9.7 24.1 0.00 0.00 0.00 60 1009.3
20260504204739 27 190 9.7 19.3 0.00 0.00 0.00 61 1009.4
20260504204228 27 190 8.0 19.3 0.00 0.00 0.00 60 1009.5
20260504204000 27 190 9.7 19.3 0.00 0.00 0.00 59 1009.3
20260504203231 27 190 11.3 20.9 0.00 0.00 0.00 59 1009.7
20260504202729 27 190 11.3 20.9 0.00 0.00 0.00 60 1009.5
20260504202226 27 190 9.7 17.7 0.00 0.00 0.00 60 1009.7
20260504201722 27 190 11.3 24.1 0.00 0.00 0.00 59 1009.8
20260504201222 27 190 11.3 24.1 0.00 0.00 0.00 60 1009.8
20260504200728 27 190 9.7 16.1 0.00 0.00 0.00 61 1009.9
20260504200223 27 190 9.7 19.3 0.00 0.00 0.00 61 1009.9
20260504195727 27 190 11.3 22.5 0.00 0.00 0.00 61 1010.2
20260504195224 27 190 11.3 22.5 0.00 0.00 0.00 60 1010.3
20260504194722 27 190 9.7 16.1 0.00 0.00 0.00 60 1010.3
20260504194223 26 190 8.0 16.1 0.00 0.00 0.00 60 1010.5
20260504193722 26 190 8.0 16.1 0.00 0.00 0.00 61 1010.6
20260504193220 26 190 9.7 16.1 0.00 0.00 0.00 61 1010.6
20260504192718 27 190 9.7 20.9 0.00 0.00 0.00 61 1010.5
20260504192446 26 190 9.7 20.9 0.00 0.00 0.00 61 1010.6
20260504191711 26 190 8.0 17.7 0.00 0.00 0.00 62 1010.7
20260504191209 26 190 9.7 19.3 0.00 0.00 0.00 62 1010.8
20260504190704 26 190 11.3 22.5 0.00 0.00 0.00 61 1010.9
20260504190204 26 190 9.7 22.5 0.00 0.00 0.00 62 1011.0
20260504185704 26 190 8.0 17.7 0.00 0.00 0.00 62 1011.1
20260504185204 26 190 8.0 16.1 0.00 0.00 0.00 62 1011.1
20260504184935 26 190 8.0 19.3 0.00 0.00 0.00 62 1011.2
20260504184209 26 190 9.7 19.3 0.00 0.00 0.00 62 1011.3
20260504183700 25 190 8.0 14.5 0.00 0.00 0.00 63 1011.2
20260504183201 25 190 9.7 16.1 0.00 0.00 0.00 63 1011.3
20260504182707 25 190 9.7 20.9 0.00 0.00 0.00 63 1011.3
20260504182201 25 190 9.7 20.9 0.00 0.00 0.00 63 1011.4